Skip Page Navigation
NASA JPL Caltech
NASA Logo - Jet Propulsion Laboratory + View the NASA Portal
+ Center for Near-Earth Object Studies
JPL Home Earth Solar System Stars & Galaxies Technology
JPL Solar System Dynamics
BODIES ORBITS EPHEMERIDES TOOLS PHYSICAL DATA DISCOVERY FAQ SITE MAP
JPL Small-Body Database Browser
Search: [ help ]  
385867 (2006 RW29)
Classification: Main-belt Asteroid          SPK-ID: 2385867
Ephemeris | Orbit Diagram | Orbital Elements | Mission Design | Physical Parameters | Discovery Circumstances | Close-Approach Data ]

[ show orbit diagram ]
Orbital Elements at Epoch 2459200.5 (2020-Dec-17.0) TDB
Reference: JPL 14 (heliocentric ecliptic J2000)
 Element Value Uncertainty (1-sigma)   Units 
e .08086714130356505 5.893e-08  
a 2.972814696534499 4.0186e-08 au
q 2.732411670400529 1.7025e-07 au
i 9.416472961880979 6.7886e-06 deg
node 179.10373116594 4.0879e-05 deg
peri 162.8496218579642 6.0312e-05 deg
M 274.8049799576273 4.6893e-05 deg
tp 2459643.559338243823
(2022-Mar-05.05933824)
0.00024791 TDB
period 1872.191140848917
5.13
3.7962e-05
1.039e-07
d
yr
n .1922880587057811 3.899e-09 deg/d
Q 3.21321772266847 4.3436e-08 au
  Orbit Determination Parameters
   # obs. used (total)      157  
   data-arc span      5479 days (15.00 yr)  
   first obs. used      2005-05-20  
   last obs. used      2020-05-20  
   planetary ephem.      DE441  
   SB-pert. ephem.      SB441-N16  
   condition code      0  
   norm. resid. RMS      .6323  
   source      ORB  
   producer      Otto Matic  
   solution date      2021-Apr-14 11:06:55  

Additional Information
 Earth MOID = 1.72464 au 
 Jupiter MOID = 2.17026 au 
 T_jup = 3.237 
[ show covariance matrix ]

Ephemeris | Orbit Diagram | Orbital Elements | Mission Design | Physical Parameters | Discovery Circumstances | Close-Approach Data ]

Physical Parameter Table
Parameter Symbol Value Units Sigma Reference Notes
absolute magnitude H 16.54   n/a E2021B25  

385867 (2006 RW29)          Discovered 2006-Sep-15 by Spacewatch at Kitt Peak
Reference: Last Updated: 2014-02-19

[ show close-approach data ]
Alternate Designations
 2006 RW29 = 2009 BZ168 
Ephemeris | Orbit Diagram | Orbital Elements | Mission Design | Physical Parameters | Discovery Circumstances | Close-Approach Data ]
ABOUT SSD CREDITS/AWARDS PRIVACY/COPYRIGHT GLOSSARY LINKS
FirstGov 2021-Jun-14 07:13 UT
(server date/time)  
NASA Home Page
Site Manager:   Ryan S. Park
Webmaster  Alan B. Chamberlin